{"data":{"norad_id":53056,"intl_designator":"2022-077P","name":"STARLINK-4314","alt_names":[],"object_type":"PAYLOAD","status":"ACTIVE","operator":null,"country":"US","launch_date":"2022-07-11","launch_site_code":"AFWTR","launch_vehicle":null,"mission":null,"orbit_class":"UNKNOWN","rcs_meters":null,"size_class":null,"mass_kg":null,"dimensions":null,"purposes":["comms"],"wikipedia_slug":null,"has_3d_model":false,"image_url":null,"decayed_at":null,"tle_current":{"epoch":"2026-05-25T01:57:06.424704Z","epoch_age_seconds":62011,"freshness":"FRESH","line1":"1 53056U 22077P   26145.08132436 -.00001746  00000+0 -11695-3 0  9996","line2":"2 53056  97.4454 326.1348 0001108 120.8188 239.3148 15.05654721212471","mean_motion":15.05654721,"eccentricity":0.0001108,"inclination_deg":97.4454,"raan_deg":326.1348,"arg_perigee_deg":120.8188,"mean_anomaly_deg":239.3148,"bstar":-0.00011695,"rev_number":21247,"period_min":95.639457035914,"perigee_km":548.72909106654,"apogee_km":550.26425468845,"semimajor_km":6927.6336728775,"source":"CELESTRAK","updated_at":"2026-05-25T13:38:17.288386Z"}}}